Location: Buckeye Ditch
(40.9104°N, 122.9517°W)
Time: 13:44:09
(UTC+00:00)

Transit 2A Rocket - Pass Details

Date: 19 May 2025
Orbit: 590 x 896 km, 66.7° (Epoch: 15 June)

Event Time Altitude Azimuth Distance (km) Brightness Sun altitude
Rises 03:57:20 0° 335° (NNW) 2,916 9.1 -5.9°
Reaches altitude 10° 03:59:37 10° 342° (NNW) 2,040 8.1 -6.3°
Maximum altitude 04:04:03 46° 56° (ENE) 905 5.3 -7.0°
Drops below altitude 10° 04:08:51 10° 130° (SE) 2,203 6.7 -7.8°
Enters shadow 04:08:59 - 131° (SE) 2,255 6.7 -7.8°
